Location: Port Stanley
(42.6641°N, 81.2156°W)
Time: 18:23:13
(UTC-04:00)

ISS - Pass Details

Date: 02 July 2019
Orbit: 409 x 418 km, 51.6° (Epoch: 22 July)

Event Time Altitude Azimuth Distance (km) Brightness Sun altitude
Exits shadow 05:06:48 - 245° (WSW) 1,542 -1.5 -7.3°
Reaches altitude 10° 05:06:58 10° 245° (WSW) 1,473 -1.6 -7.3°
Maximum altitude 05:10:15 66° 328° (NNW) 451 -3.6 -6.9°
Drops below altitude 10° 05:13:33 10° 52° (NE) 1,477 0.9 -6.4°
Sets 05:15:39 0° 55° (NE) 2,340 2.7 -6.1°
